Location: Caltech
(34.1382°N, 118.1253°W)
Time: 15:32:15
(UTC-08:00)

A-11 Canister half - All Passes

Search period start: 12 December 2017 00:00
Search period end: 22 December 2017 00:00
Orbit: 1514 x 1686 km, 47.2° (Epoch: 11 December)

Date Brightness Start Highest point End Pass type
(mag) Time Alt. Az. Time Alt. Az. Time Alt. Az.
12 Dec - 00:36:19 10° NW 00:46:28 77° SW 00:56:35 10° SE night (unlit)
12 Dec - 02:43:27 10° W 02:50:24 21° SW 02:57:20 10° SSW visible
12 Dec - 15:50:33 10° SSW 15:59:16 43° SE 16:08:16 10° ENE daylight
12 Dec - 17:54:21 10° WSW 18:03:55 68° NNW 18:13:53 10° NE visible
12 Dec - 20:01:26 10° WNW 20:10:30 39° N 20:19:49 10° ENE visible
12 Dec - 22:08:05 10° NW 22:17:42 47° NNE 22:27:25 10° E visible
13 Dec - 00:13:21 10° NW 00:23:31 81° SW 00:33:41 10° SE night (unlit)
13 Dec - 02:20:11 10° WNW 02:27:32 23° SW 02:34:53 10° S night (unlit)
13 Dec - 15:27:53 10° SSW 15:36:25 40° SE 15:45:14 10° ENE daylight
13 Dec - 17:31:23 10° WSW 17:40:57 71° NNW 17:50:56 10° NE visible
13 Dec - 19:38:22 10° WNW 19:47:26 40° N 19:56:46 10° ENE visible
13 Dec - 21:45:07 10° NW 21:54:39 46° NNE 22:04:20 10° E visible
13 Dec - 23:50:24 10° NW 00:00:35 85° SW 00:10:46 10° SE night (unlit)
14 Dec - 01:56:59 10° WNW 02:04:41 25° SW 02:12:22 10° S night (unlit)
14 Dec - 15:05:14 10° SSW 15:13:34 37° SE 15:22:10 10° ENE daylight
14 Dec - 17:08:27 10° WSW 17:18:00 74° NNW 17:27:58 10° NE visible
14 Dec - 19:15:20 10° WNW 19:24:22 40° N 19:33:43 10° ENE visible
14 Dec - 21:22:08 10° NW 21:31:36 45° NNE 21:41:14 10° E visible
14 Dec - 23:27:27 10° NW 23:37:38 89° SSW 23:47:50 10° SE night (unlit)
15 Dec - 01:33:49 10° WNW 01:41:50 27° SW 01:49:50 10° S night (unlit)
15 Dec - 14:42:36 10° S 14:50:43 34° SE 14:59:05 10° ENE daylight
15 Dec - 16:45:31 10° WSW 16:55:03 78° NW 17:05:00 10° NE daylight
15 Dec - 18:52:16 10° W 19:01:19 41° N 19:10:40 10° ENE visible
15 Dec - 20:59:10 10° NW 21:08:33 44° NNE 21:18:07 10° E visible
15 Dec - 23:04:31 10° NW 23:14:40 87° NE 23:24:54 10° SE night (unlit)
16 Dec - 01:10:40 10° WNW 01:18:57 30° SW 01:27:16 10° S night (unlit)
16 Dec - 14:20:00 10° S 14:27:53 31° SE 14:35:59 10° ENE daylight
16 Dec - 16:22:36 10° WSW 16:32:06 81° NW 16:42:02 10° NE daylight
16 Dec - 18:29:14 10° W 18:38:16 42° NNW 18:47:37 10° ENE visible
16 Dec - 20:36:12 10° NW 20:45:30 43° NNE 20:55:01 10° E visible
16 Dec - 22:41:34 10° NW 22:51:42 83° NE 23:01:56 10° SE visible
17 Dec - 00:47:33 10° WNW 00:56:06 32° SW 01:04:39 10° S night (unlit)
17 Dec - 13:57:26 10° S 14:05:03 29° SE 14:12:52 10° ENE daylight
17 Dec - 15:59:41 10° SW 16:09:10 85° NW 16:19:04 10° NE daylight
17 Dec - 18:06:11 10° W 18:15:14 42° NNW 18:24:36 10° NE visible
17 Dec - 20:13:13 10° WNW 20:22:27 42° NNE 20:31:53 10° E visible
17 Dec - 22:18:38 10° NW 22:28:44 80° NE 22:38:57 10° ESE visible
18 Dec - 00:24:28 10° WNW 00:33:13 35° SW 00:42:00 10° S night (unlit)
18 Dec - 13:34:53 10° S 13:42:14 27° SE 13:49:43 10° ENE daylight
18 Dec - 15:36:48 10° SW 15:46:14 89° NW 15:56:07 10° NE daylight
18 Dec - 17:43:09 10° W 17:52:12 43° NNW 18:01:35 10° NE visible
18 Dec - 19:50:14 10° WNW 19:59:23 41° N 20:08:47 10° E visible
18 Dec - 21:55:42 10° NW 22:05:46 76° NNE 22:15:59 10° ESE visible
19 Dec - 00:01:24 10° WNW 00:10:20 37° SW 00:19:19 10° SSE night (unlit)
19 Dec - 13:12:23 10° S 13:19:24 24° SE 13:26:33 10° ENE daylight
19 Dec - 15:13:54 10° SW 15:23:20 87° SE 15:33:09 10° NE daylight
19 Dec - 17:20:07 10° W 17:29:10 44° NNW 17:38:34 10° NE visible
19 Dec - 19:27:15 10° WNW 19:36:20 40° N 19:45:40 10° ENE visible
19 Dec - 21:32:46 10° NW 21:42:47 73° NNE 21:52:58 10° ESE visible
19 Dec - 23:38:21 10° WNW 23:47:27 40° SW 23:56:38 10° SSE night (unlit)
20 Dec - 12:49:56 10° S 12:56:35 22° SE 13:03:21 10° E daylight
20 Dec - 14:51:03 10° SW 15:00:25 82° SE 15:10:11 10° NE daylight
20 Dec - 16:57:04 10° W 17:06:08 46° NNW 17:15:33 10° NE visible
20 Dec - 19:04:15 10° WNW 19:13:17 39° N 19:22:33 10° ENE visible
20 Dec - 21:09:51 10° NW 21:19:49 70° NNE 21:29:58 10° ESE visible
20 Dec - 23:15:19 10° WNW 23:24:34 43° SW 23:33:54 10° SSE night (unlit)
21 Dec - 12:27:32 10° SSE 12:33:46 20° SE 12:40:06 10° E daylight
21 Dec - 14:28:11 10° SW 14:37:31 78° SE 14:47:13 10° NE daylight
21 Dec - 16:34:03 10° W 16:43:07 47° NNW 16:52:34 10° NE daylight
21 Dec - 18:41:15 10° WNW 18:50:13 39° N 18:59:27 10° ENE visible
21 Dec - 20:46:55 10° NW 20:56:49 67° NNE 21:06:56 10° ESE visible
21 Dec - 22:52:18 10° WNW 23:01:41 46° SW 23:11:10 10° SSE visible
